CAPE
1956 2340 2702 2708 2587 2488 2388 2355 2252 2208 1972 1951 1798 1687 1747 1780 1744 1732 1741 1730 1648 1471 1447 1421 1427 1533 1677 1767 1788 1884 1854 1996 2026 1949 1925 1949 1731 1452 1443 1397 1395 1596 1650 1572 1183 983 1481 1659 1607 1675 1609 1441 1487 1344 1243 1109 1010 1022 1051 1023 869 601 499 446 275 257 394 378 218 139 121 149 117 92 42 254 338 308 722 795 806 924 944 1134 1218
1964 2408 2623 2639 2628 2497 2448 2361 2171 2007 1979 1896 1557 1738 1729 1758 1821 1815 1835 1761 1479 1407 1474 1461 1523 1626 1716 1751 1800 1923 2002 2033 2027 2101 2163 2250 2245 1921 1819 1913 2101 2136 1626 1155 1055 1126 958 1447 1458 1537 1446 1387 1412 1186 1243 1199 1233 1258 1179 1007 717 550 641 671 562 585 535 508 467 235 246 155 122 72 259 356 323 801 829 874 902 728 887 889 1186
2115 2420 2580 2678 2641 2424 2381 2270 2198 2132 1863 1522 1596 1747 1761 1817 1869 1905 1788 1699 1541 1493 1543 1554 1631 1655 1674 1696 1822 1916 1994 2044 2077 2188 2286 2283 2408 2397 2413 2460 2156 2151 1672 1188 995 904 778 938 947 1172 1178 1288 1287 1362 1236 1192 1144 1140 1133 994 734 706 792 812 683 701 667 649 353 214 184 266 149 115 112 139 242 830 909 946 896 940 850 914 966
2108 2317 2532 2588 2544 2420 2306 2258 2167 2051 1785 1775 1905 1928 1880 1884 1941 1922 1776 1697 1686 1682 1603 1663 1640 1636 1640 1611 1666 1847 1954 1967 2012 2122 2312 2445 2529 2620 2551 2136 1836 1673 1549 1315 1119 986 1063 1047 1054 1009 980 966 1181 1243 1303 1367 1287 1224 1129 998 960 778 836 740 486 496 547 576 481 396 348 83 87 96 72 69 85 766 1032 1021 1004 843 658 934 992
2073 2268 2416 2398 2316 2329 2268 2280 2199 2159 2082 2037 1887 1683 2049 2017 1993 1989 1878 1779 1806 1813 1719 1703 1694 1725 1686 1682 1662 1714 1897 1975 2112 2142 2095 2285 2283 1985 1609 1732 1558 1373 1420 1449 1402 1321 1107 962 965 988 1001 1148 1169 1294 1366 1252 1122 1099 1127 1171 992 882 840 807 836 1418 1056 519 426 133 14 8 47 80 56 57 79 659 708 597 746 577 830 875 911
2019 2186 2185 2147 2127 2267 2279 2251 2226 2178 2108 2040 2058 2107 2073 2115 2094 2033 1999 1944 1928 1940 1813 1701 1709 1726 1795 1776 1741 1751 1812 1916 1922 2039 2118 2093 1997 1861 1577 1497 1434 1264 1252 1235 1349 1255 1189 1187 1116 1062 1087 1181 1215 1306 1258 1205 1154 1122 1075 1077 1042 1080 1172 1122 1027 1152 1102 631 301 78 67 66 65 91 166 96 139 107 54 300 277 885 934 853 888
2052 2022 2019 2042 2068 2210 2216 2152 2186 2221 1990 1896 2302 2304 2253 2209 2153 2211 2088 2031 1973 1903 1785 1778 1709 1729 1778 1736 1745 1700 1732 1815 2078 2182 2221 2105 1946 1830 1570 1368 1288 1190 1246 1282 1368 1306 1176 1119 1157 1088 1107 1183 1242 1254 1171 1108 1128 1074 1014 1026 1038 1021 1177 1150 1149 1054 1334 1076 325 12 18 11 114 173 165 79 101 48 59 60 1084 854 833 807 765
1948 1953 1991 2009 2066 2285 2136 2097 2206 2200 2239 2240 2067 2287 2248 2253 2212 2255 2208 2072 2017 2010 1857 1770 1748 1760 1747 1694 1645 1646 1681 1842 1925 2019 2161 2134 2014 1864 1611 1284 1245 1256 1168 1244 1252 1288 1354 1258 1278 1020 1146 1139 1158 1186 1151 1129 1116 1195 1165 1121 1262 1353 1502 1392 1365 1446 1259 449 379 352 247 196 96 66 133 146 60 92 64 547 764 682 663 580 852
1854 1950 2033 2081 2194 2259 2104 2048 2146 2301 2168 2104 2349 2281 2232 2294 2296 2306 2233 2077 1951 1854 1816 1756 1757 1667 1686 1700 1751 1765 1930 2063 2127 2133 2039 2056 1828 1960 1968 2074 1918 1994 1832 1483 1348 1342 1384 1312 992 934 962 1158 1240 1253 1352 1423 1383 1469 1464 1501 1585 1595 1689 1741 1848 1862 1432 425 509 419 290 127 43 45 36 76 115 128 217 334 555 457 556 551 608
1793 1933 2065 2133 2179 2294 2134 2103 2185 2328 2326 2485 2384 2199 2316 2308 2300 2301 2199 1946 1876 1881 1851 1854 1793 1710 1707 1812 1822 1859 1981 1854 1807 1628 1728 1746 1870 1817 1723 1574 1407 1292 1422 1362 1334 1356 1444 1124 963 1094 1144 1150 1322 1400 1328 1282 1439 1471 1525 1628 1543 1537 1680 1822 914 755 410 519 517 483 550 468 94 213 247 97 70 76 117 140 424 499 546 615 563
1724 1964 2068 2165 2199 2224 2133 2151 2322 2372 2256 2437 2364 2324 2308 2330 2408 2266 2137 1975 1860 1884 1912 1851 1802 1752 1712 1682 1654 1788 1910 1827 1896 1852 1687 1638 1681 1760 1627 1553 1519 1460 1350 1332 1351 1416 1485 1109 994 1163 1311 1393 1390 1314 1309 1504 1508 1568 1467 1504 1567 1736 1955 1554 698 453 439 510 571 527 426 445 42 75 265 143 95 90 146 198 278 272 268 288 479
1754 1946 2160 2221 2421 2199 2184 2199 2276 2288 2451 2440 2414 2428 2365 2411 2338 2217 2051 1956 1842 1837 1830 1943 1879 1706 1601 1540 1484 1702 1859 1806 1956 1916 1708 1589 1593 1583 1548 1522 1466 1394 1485 1377 1601 1638 1409 1080 1156 1346 1404 1430 1287 1345 1379 1494 1365 1355 1486 1512 1731 1817 1998 1371 506 428 506 546 530 506 441 216 52 156 147 130 240 44 44 62 59 63 55 56 217
1702 1976 2190 2238 2235 2251 2155 2202 2267 2406 2401 2435 2433 2384 2409 2199 2316 2152 2059 2017 1969 1835 1819 1823 1834 1778 1683 1495 1413 1821 1958 1945 2015 1990 2002 1777 1688 1629 1588 1510 1438 1426 1382 1412 1641 1736 1556 1380 1344 1472 1470 1360 1360 1392 1436 1374 1410 1466 1554 1594 1632 1863 1826 1077 538 525 466 444 462 430 292 152 54 166 154 174 217 228 194 157 143 126 109 89 66
1702 1900 2069 2172 2161 2367 2103 2125 2238 2485 2456 2362 2352 2339 2452 2417 2288 2124 2054 2078 2014 1977 1968 1955 1911 1873 1754 1672 1667 1930 2075 1974 1905 1844 1839 1835 1773 1670 1643 1600 1544 1543 1541 1725 1864 1850 1676 1465 1316 1306 1331 1287 1350 1324 1203 1355 1355 1514 1534 1543 1629 1814 1660 658 639 557 506 484 452 435 409 391 375 491 449 402 341 286 218 188 143 189 158 182 164
1706 1795 1930 2084 2195 2201 2293 2190 2366 2388 2352 2259 2169 2304 2282 2176 2078 2027 2050 2077 1955 1997 1950 1947 1993 1921 1705 1785 1815 2030 2034 1910 1808 1795 1820 1720 1726 1698 1654 1601 1620 1633 1696 1890 1814 1671 1499 1394 1276 1214 1207 1240 1191 1181 1142 1358 1235 1358 1301 1329 1647 1890 1900 844 580 542 552 629 539 493 514 619 805 624 356 315 201 157 135 127 90 102 104 97 69
1713 1833 1922 2016 2125 2192 2231 2441 2352 2258 2194 2188 2242 2206 2099 2047 2039 2019 2070 2037 2032 2041 2080 2228 2263 2101 1921 1860 1881 1895 1791 1819 1820 1744 1742 1708 1613 1594 1646 1660 1706 1724 1708 1756 1658 1428 1394 1330 1232 1210 1244 1108 1015 1134 1038 1209 1187 1176 1304 1427 1600 2114 2044 1220 550 648 708 626 645 676 686 692 599 290 216 284 196 164 142 116 140 135 96 67 59
1719 1787 1888 1994 2080 2131 2202 2355 2280 2110 2108 2163 2162 2071 1932 1879 1889 1933 1924 1889 2071 2142 2144 2166 2137 2118 1916 1844 1819 1794 1812 1739 1716 1692 1586 1575 1503 1482 1500 1566 1704 1653 1595 1587 1659 1672 1573 1532 1368 1254 1183 1069 936 964 936 1052 1102 1129 1240 1220 1608 2127 1966 1150 713 730 689 722 695 728 630 546 471 420 482 385 263 232 243 193 75 52 73 84 38
1700 1748 1852 1928 1981 2060 2092 2056 2051 1886 1939 1968 2023 1971 1669 1579 1795 1957 1806 1965 2114 2070 1979 1935 1998 2060 2078 2040 1893 1879 1834 1751 1712 1685 1566 1506 1529 1491 1472 1406 1378 1584 1624 1529 1442 1402 1400 1352 1284 1198 1040 989 779 793 942 888 1080 1021 1147 1257 1757 1965 1891 789 689 682 691 1022 766 798 584 784 780 679 486 220 151 177 218 183 132 105 87 63 43
1647 1816 1800 1828 1878 1914 1916 1881 1769 1784 1847 1794 1759 1602 1222 1230 1668 1891 1751 1898 1718 1775 1805 1843 1860 1954 2029 1996 1893 1744 1678 1746 1769 1680 1559 1592 1431 1416 1454 1389 1278 1114 1353 1381 1299 1218 1164 1112 1105 1016 963 859 901 737 816 743 849 923 1094 1288 1567 1329 1573 855 672 670 744 722 769 681 753 976 775 817 743 455 328 271 247 136 101 108 162 150 128
1472 1694 1734 1756 1758 1746 1751 1698 1679 1734 1710 1761 1567 1381 1212 1192 1459 1376 1534 1532 1419 1468 1558 1662 1581 1668 1714 1645 1775 1747 1637 1739 1847 1696 1606 1562 1519 1402 1304 1189 1103 973 826 775 824 973 1061 1092 990 860 730 614 665 629 684 748 775 947 1051 1200 1139 884 977 1062 794 760 786 655 659 739 1153 1098 849 819 823 653 300 207 164 187 208 152 146 118 117
1482 1505 1625 1663 1658 1618 1623 1620 1633 1678 1591 1590 1363 1346 1290 1341 1230 1263 1475 1384 1346 1333 1300 1262 1308 1281 1236 1307 1394 1473 1529 1508 1660 1533 1727 1538 1524 1476 1286 1150 997 876 852 850 900 1028 1062 931 640 720 550 815 708 817 856 850 884 940 1180 1357 899 976 988 1018 923 852 735 643 737 740 1332 1142 783 709 600 562 364 473 368 225 212 230 224 194 139
1469 1278 1482 1565 1543 1548 1557 1578 1578 1496 1576 1451 1301 1160 1196 1189 993 1035 1082 1071 1262 1316 1144 891 945 991 1084 1176 1294 1398 1478 1524 1434 1476 1524 1695 1520 1447 1256 1110 1038 966 959 965 995 944 858 668 725 822 737 1004 978 330 232 235 385 676 1038 1372 866 853 964 958 908 789 672 556 724 1076 1315 1132 768 674 710 666 629 559 348 231 235 248 220 166 133
1427 1264 1365 1469 1448 1452 1548 1556 1507 1481 1449 1251 1092 1135 1024 956 657 691 874 1173 1412 1074 933 948 913 914 930 1009 1170 1340 1338 1393 1381 1690 1754 1595 1587 1415 1259 1147 1071 1066 1029 1018 960 985 841 914 1023 933 1094 804 118 288 299 288 298 347 692 700 669 690 901 911 857 696 654 629 786 1385 1285 1117 789 787 698 657 686 665 600 442 257 117 158 209 159
1270 1238 1310 1441 1424 1482 1584 1554 1471 1377 1210 1161 1026 870 755 557 502 599 823 968 991 929 928 931 912 898 829 819 955 1206 1212 1193 1276 1315 1331 1543 1504 1463 1316 1212 1137 1080 1033 1095 1038 918 1087 921 740 531 128 168 17 313 146 324 346 280 353 611 483 731 801 895 773 696 658 971 941 1520 1390 1166 995 779 643 674 730 764 648 451 321 198 145 140 184
1231 1246 1279 1412 1389 1460 1569 1528 1455 1292 1142 1013 865 697 562 581 624 636 733 800 765 828 938 983 930 818 777 782 834 996 1061 1183 1236 1185 1367 1393 1358 1289 1165 1070 976 1001 1084 938 942 984 674 464 414 16 1 12 36 155 211 308 318 334 0 194 522 668 820 835 876 716 820 847 1116 1571 1412 1301 1082 738 670 847 863 781 569 334 258 250 213 168 155
1312 1192 1201 1265 1291 1330 1398 1413 1393 1151 1120 1001 708 667 444 143 487 660 689 711 794 889 852 815 820 814 780 817 827 847 1019 1119 1153 1313 1345 1336 1286 1226 1086 991 972 970 940 914 832 814 791 545 457 302 74 23 159 337 281 304 293 9 0 314 507 675 797 878 905 808 862 920 1316 1549 1401 1298 1073 736 787 1071 868 754 631 323 272 226 198 166 176
1492 1359 1213 1290 1155 1242 1246 1197 1121 1048 882 745 645 368 80 193 384 669 727 730 769 738 686 627 641 696 777 815 830 806 915 1134 1134 1191 1249 1260 1254 1175 1099 976 914 932 994 1003 908 828 623 510 329 130 286 319 287 305 229 267 282 290 336 190 453 762 809 810 838 947 955 1063 1392 1536 1356 1280 1114 987 1141 1010 828 673 604 528 322 249 185 211 222
1484 1276 1364 1362 1178 1127 1182 1147 934 753 653 663 316 276 337 322 713 776 775 738 786 811 737 652 705 783 806 754 781 738 895 1108 1130 1158 1148 1133 1145 1121 1132 1090 979 1000 773 831 788 734 586 229 41 165 265 273 267 293 436 253 235 209 232 98 542 816 756 751 990 1085 1132 1293 1425 1546 1372 1234 1076 1212 1147 905 706 560 605 504 408 410 276 223 190
1512 1368 1312 1313 1338 1323 1041 1184 1073 791 638 419 376 441 224 503 719 838 824 724 793 839 860 714 724 929 872 745 663 710 966 1081 1050 1078 1052 1139 1096 1072 1063 950 878 807 700 776 684 642 35 46 77 167 354 401 396 364 367 286 221 136 28 331 770 878 842 797 860 967 1169 1245 1202 1314 1609 1379 1172 1029 1057 793 718 622 563 433 398 462 284 233 164
1528 1488 1541 1496 1466 1250 977 1118 1118 906 782 592 400 403 528 618 501 687 842 843 819 915 928 769 754 826 878 798 805 789 976 1047 1044 1042 958 1065 1078 1056 1003 908 854 894 856 818 621 243 94 168 428 402 138 96 356 530 206 162 148 209 103 344 910 922 896 845 755 983 1127 1061 1012 1217 1851 1496 1316 1082 1059 888 719 623 506 331 520 632 343 278 246
1341 1692 1387 1409 1323 1170 942 1002 1048 932 737 567 454 462 599 631 566 613 742 733 918 946 1001 868 807 774 813 831 875 847 963 989 996 1043 990 965 1022 977 916 818 796 771 742 752 522 45 361 307 450 359 50 60 572 476 124 105 156 194 189 238 789 1042 964 852 670 902 923 811 907 1255 1963 1911 1575 1187 1019 1082 1016 714 421 416 728 831 516 357 280
940 1385 1336 1483 1420 934 1007 1063 1029 966 809 701 757 639 699 740 611 644 775 659 752 807 819 890 821 729 830 775 891 777 806 895 912 929 919 930 915 894 753 730 702 729 545 448 466 412 407 492 516 458 434 608 482 530 174 62 64 193 170 225 593 979 962 862 678 516 479 536 943 1309 1772 1464 1519 1214 1191 1254 1088 966 553 304 858 970 624 576 427
1035 1368 1434 1412 1118 806 975 1071 994 995 959 894 806 607 560 660 627 770 829 755 700 738 829 862 883 765 848 781 850 825 810 854 893 817 731 774 638 646 794 725 665 768 737 592 606 610 547 671 694 615 706 681 418 503 353 103 66 109 183 205 396 763 1037 1015 756 584 611 627 829 1240 1390 1203 1220 1200 1224 1445 1123 1158 737 305 299 1054 898 736 529
1264 1362 1230 1024 810 910 794 969 903 1002 1019 982 755 684 711 745 726 792 893 933 839 878 901 834 835 844 903 832 860 939 934 831 842 769 681 619 581 680 846 867 811 761 754 695 736 812 786 710 639 725 809 574 428 358 203 133 127 195 204 197 343 415 727 864 713 640 746 709 840 1157 1156 1056 932 872 1094 1528 1379 1081 788 717 284 282 944 853 642
906 866 861 774 987 954 843 873 987 1027 1057 929 897 874 854 875 912 967 791 819 847 863 816 738 864 779 735 746 800 888 970 849 800 866 777 592 499 550 658 788 874 898 822 630 767 847 806 839 783 853 890 831 721 504 274 226 285 280 284 275 397 418 488 693 821 759 713 630 702 959 1071 851 646 740 621 712 1330 1020 963 913 590 456 1172 1138 919
1031 940 961 953 992 954 909 954 948 1062 959 884 832 904 989 1020 1070 930 576 551 579 685 635 642 723 536 684 713 755 837 969 850 855 775 689 564 470 487 559 729 809 830 903 795 860 838 855 792 662 727 885 884 752 608 406 473 377 255 224 229 315 409 520 530 570 616 563 408 582 811 993 830 835 810 894 482 588 878 986 978 826 642 683 1021 1055
1086 989 1042 973 972 975 950 880 969 936 843 886 998 1071 1128 1094 1152 965 677 609 561 604 611 596 522 536 703 776 873 914 863 796 672 620 614 644 629 588 634 680 647 782 914 839 947 850 840 777 722 755 823 958 810 768 555 427 334 356 318 266 308 314 326 444 540 577 562 563 476 679 859 879 1227 1418 504 523 560 724 1081 1084 912 908 728 579 494
1043 1056 980 917 998 1002 991 973 1040 856 905 981 1015 1048 1050 913 779 824 692 476 472 532 635 626 668 822 791 855 949 671 692 729 684 582 738 757 652 492 491 572 572 801 943 879 804 814 782 672 711 806 880 917 860 745 568 444 290 236 363 354 386 295 173 376 626 642 599 684 522 520 696 767 1120 977 572 448 480 434 641 926 1021 804 765 513 147
1069 1051 929 1044 1071 1140 1071 1024 972 882 1016 1070 1016 944 922 713 798 867 753 586 503 525 590 652 694 732 653 620 675 693 752 886 847 732 766 600 551 659 746 721 785 717 638 717 748 779 667 705 783 697 713 904 805 680 479 256 184 119 147 288 393 374 289 72 364 590 653 750 806 817 499 591 994 1075 758 390 454 401 341 444 465 434 238 363 687
1003 1001 1024 1064 1138 1085 992 967 909 950 991 992 902 799 727 781 844 883 846 795 640 494 508 406 453 551 590 683 823 846 990 936 911 825 656 671 775 817 855 785 776 715 528 659 740 711 559 787 920 672 580 859 869 702 504 214 0 0 0 354 403 248 268 93 104 100 587 826 870 785 772 694 832 1110 1030 594 498 322 119 70 391 390 482 746 925
878 915 956 1023 1059 1018 971 917 883 792 667 636 608 590 721 868 878 820 726 571 472 387 412 530 555 626 763 902 967 975 1027 1008 881 788 645 654 697 778 722 499 636 510 491 623 717 682 758 819 898 896 809 620 779 632 402 0 2 0 250 3 74 19 192 81 76 92 203 431 657 654 816 882 810 901 1045 853 722 452 389 192 406 361 470 490 562
874 896 928 1020 1099 1038 977 860 854 837 700 622 659 772 962 974 658 553 582 522 408 331 388 469 502 711 900 984 1017 906 985 1011 891 768 548 484 532 640 455 100 117 496 594 741 854 868 804 823 662 789 770 645 689 672 356 0 13 11 203 164 52 311 80 0 14 280 287 354 463 603 637 684 690 757 938 642 704 564 478 491 509 461 407 470 457
954 965 959 963 1162 1093 903 858 802 724 693 700 827 987 952 711 530 602 678 592 437 407 444 564 680 820 923 890 765 856 861 850 781 723 712 601 500 503 408 185 171 441 796 921 920 800 595 680 598 496 602 549 642 767 810 689 41 0 0 0 8 1 0 0 0 191 328 411 280 440 569 600 609 644 788 806 696 755 666 528 548 567 487 435 488
1020 984 915 946 997 1017 953 875 755 738 767 749 785 738 538 367 345 460 592 544 512 456 458 580 703 724 844 850 773 717 767 718 636 605 672 623 513 527 490 451 365 465 646 743 539 596 685 690 645 401 408 434 602 679 751 234 0 0 6 23 0 17 0 40 2 105 289 381 382 426 506 634 648 603 645 674 676 567 600 565 388 498 600 428 447
1026 970 977 884 843 880 976 930 896 986 877 758 746 645 468 319 307 402 469 485 506 526 572 602 616 621 694 740 660 664 688 683 639 534 549 494 420 0 0 0 0 520 598 574 509 685 622 740 663 480 233 396 450 480 526 384 99 178 0 0 2 0 0 89 77 92 253 379 432 505 591 534 671 642 683 630 642 636 603 565 473 435 514 555 409
992 1034 1011 976 981 985 1063 1120 1126 1065 899 801 781 722 541 386 323 303 323 391 469 526 531 522 458 422 440 451 502 580 600 608 489 373 378 1 0 0 0 0 0 0 0 0 0 284 387 545 611 413 317 335 471 517 592 588 475 371 17 0 18 254 0 56 0 98 223 199 260 346 387 505 518 554 506 490 516 427 579 561 518 512 412 249 437
1040 1076 1063 1080 1125 1148 1136 1084 980 942 954 924 868 755 632 444 312 262 291 368 418 449 455 441 403 384 353 356 382 468 298 162 0 0 0 0 0 0 0 0 0 0 0 0 0 83 138 188 268 280 335 274 330 436 414 486 403 348 463 422 379 296 0 0 4 149 204 274 334 352 348 290 297 337 243 142 76 48 40 456 458 486 373 296 398
1084 1149 1138 1050 1108 1166 1161 1110 1056 1047 1104 822 716 708 734 539 348 264 227 244 258 193 204 249 263 214 219 255 0 0 0 0 0 0 0 0 0 0 0 0 0 0 0 0 0 0 0 178 250 268 218 224 333 402 377 253 309 410 444 415 311 174 1 0 0 15 102 252 188 183 0 371 359 398 202 21 0 0 0 338 329 344 310 275 293
1112 1116 1129 1057 1041 1165 1228 1208 1197 1210 1138 578 616 685 742 570 429 328 254 34 0 0 0 0 0 0 0 0 0 0 0 0 0 0 0 0 0 0 0 0 0 0 0 0 0 0 0 0 168 228 193 135 209 240 184 230 324 406 372 278 334 254 0 330 0 0 6 79 183 28 32 357 405 312 44 0 0 0 166 223 125 206 219 224 0
1133 1089 1024 1027 981 1150 1226 1285 1259 1264 858 679 666 695 715 577 504 363 238 116 238 184 0 0 0 0 0 0 0 0 0 0 0 0 0 0 0 0 0 0 0 0 0 0 0 0 0 0 0 135 159 193 194 219 261 286 234 242 261 263 350 316 286 156 0 0 0 0 24 7 4 279 253 235 255 320 320 59 88 60 72 26 0 0 0
1016 1062 960 938 1047 1162 1217 1228 1334 1221 667 934 692 630 586 569 482 372 310 203 169 26 0 0 0 0 0 0 0 0 0 0 0 0 0 0 0 0 0 0 0 0 0 0 0 0 0 0 0 0 0 0 0 1 96 162 190 188 81 155 303 283 47 207 152 0 0 0 0 0 38 0 15 221 241 253 6 0 0 0 0 0 0 0 0
Wind_Speed
20 27 27 30 30 32 33 35 36 36 38 38 40 40 40 41 41 40 38 38 37 38 38 38 36 35 34 34 35 34 35 34 31 30 28 28 27 27 27 26 26 26 28 28 26 26 27 27 27 26 25 25 25 25 25 23 23 22 22 22 22 22 21 20 20 21 22 21 22 21 19 18 19 nan nan 16 16 16 16 16 14 9 8 11 15
30 26 25 26 30 31 33 34 34 35 37 38 39 39 40 41 41 40 39 37 37 37 37 36 36 35 36 34 35 35 34 32 31 29 28 27 27 27 27 27 27 27 27 27 26 25 26 27 26 24 24 24 24 23 23 23 22 22 22 21 21 20 20 20 20 20 21 21 21 21 21 20 20 nan 19 18 17 18 16 17 16 9 6 14 15
36 30 26 28 31 33 33 33 34 35 36 38 39 40 40 41 40 39 38 37 36 36 36 36 35 36 36 36 35 35 34 32 31 29 28 27 27 27 27 26 27 28 28 26 26 27 25 25 24 24 23 23 23 22 22 21 21 20 20 19 20 20 19 19 19 20 19 20 20 20 21 22 21 19 19 18 18 18 18 17 16 13 10 18 15
41 33 29 30 32 31 32 32 33 35 37 37 39 41 41 40 40 39 38 37 37 36 36 35 35 35 36 37 36 35 35 33 31 29 27 27 28 28 28 28 28 27 27 27 26 25 25 24 23 23 23 23 22 21 21 20 20 19 19 20 18 17 19 18 19 20 20 19 18 14 10 nan nan nan nan nan nan 20 19 17 17 16 17 17 18
42 36 31 29 28 30 31 33 34 36 37 38 39 42 40 40 39 37 37 36 36 37 36 36 35 36 36 37 37 37 35 33 29 26 25 25 27 28 28 28 28 28 26 26 26 25 24 22 22 22 21 21 21 20 19 19 19 18 18 17 16 14 15 17 19 17 17 17 18 13 nan nan nan nan nan nan nan 18 17 16 17 16 17 17 18
42 35 32 31 28 28 33 35 36 38 39 40 41 41 39 39 38 38 37 36 36 37 37 37 36 36 37 38 39 37 36 33 30 27 24 22 23 25 27 28 28 27 26 26 25 25 23 22 21 21 21 20 19 18 18 17 17 17 17 17 15 14 12 8 9 12 15 15 14 nan nan nan nan nan 20 nan 18 19 nan 17 16 18 18 18 18
42 36 33 31 28 29 35 37 38 39 39 40 40 39 38 38 37 37 36 37 37 37 38 38 37 36 37 38 38 38 36 34 29 27 25 23 22 23 25 26 25 26 26 26 24 23 22 21 20 20 19 19 18 17 17 17 16 16 16 16 15 13 11 9 6 8 11 8 8 nan nan nan 9 10 19 nan 17 nan nan nan 19 17 17 18 17
38 36 34 32 29 32 36 38 39 39 39 40 40 38 37 37 37 36 37 37 36 35 36 37 38 37 37 38 38 37 37 34 30 28 25 23 23 24 23 25 24 24 26 25 23 22 21 20 20 18 18 18 17 17 16 16 15 15 15 14 14 12 9 7 6 5 10 8 7 9 9 10 nan nan 20 20 nan nan nan 19 18 17 17 18 17
36 35 34 32 30 36 37 38 38 38 39 39 37 36 36 36 37 37 37 37 36 36 36 37 38 39 38 37 37 36 37 36 31 27 24 23 26 26 25 24 24 24 24 24 23 21 21 19 18 18 18 18 17 16 16 15 14 14 14 14 13 12 9 7 5 10 10 7 7 8 9 9 nan nan nan nan 20 20 22 19 18 17 17 16 17
34 33 32 31 30 35 37 37 37 38 38 37 36 36 36 36 37 37 37 37 36 36 37 37 38 39 38 37 37 37 37 36 33 29 26 26 26 27 26 25 25 25 25 25 23 22 21 18 17 18 18 17 16 16 15 13 13 13 13 13 13 12 12 13 20 17 9 8 8 9 9 11 nan 13 18 nan nan nan 20 19 13 14 15 17 17
31 30 29 30 32 35 36 36 36 37 36 36 35 35 37 38 38 38 37 37 37 37 36 37 38 37 38 37 37 37 36 35 32 29 27 27 27 27 28 27 25 24 24 25 24 23 21 18 17 18 17 16 16 15 13 12 12 12 13 13 14 14 15 15 16 11 9 10 9 7 12 16 nan nan 20 21 nan nan 21 20 19 18 18 18 19
28 27 27 28 33 34 35 35 35 35 36 35 36 36 37 37 38 38 37 37 37 38 38 36 36 36 37 37 36 35 35 34 31 29 28 28 28 28 27 27 26 25 24 26 26 24 22 19 18 18 16 15 14 13 13 12 11 12 13 14 15 17 16 16 13 10 8 9 9 8 9 11 nan 17 22 21 20 nan nan nan nan nan nan nan 17
28 27 26 28 29 32 33 34 34 33 34 34 35 37 37 38 38 38 37 36 36 37 38 36 35 34 35 35 35 34 33 31 30 29 29 28 29 28 27 27 26 26 26 27 27 24 22 20 18 17 16 15 14 13 13 12 12 13 14 15 17 18 18 17 12 10 9 8 8 9 10 10 nan 19 19 20 20 21 21 22 20 18 18 nan nan
28 27 26 28 27 31 32 32 32 32 32 34 35 37 38 38 38 37 36 36 36 37 36 35 34 33 33 33 33 32 30 29 29 29 29 28 29 28 27 26 26 26 27 27 26 24 22 21 19 17 15 14 13 13 13 12 12 13 14 15 16 19 20 16 13 11 9 9 9 8 7 8 11 19 20 20 20 22 22 22 21 20 20 19 18
28 28 28 27 27 26 32 31 31 32 33 35 37 38 38 38 37 36 36 36 37 36 36 35 33 33 34 34 32 30 28 27 27 29 29 28 28 28 27 27 27 27 26 26 25 23 22 21 20 17 15 13 13 13 13 12 12 14 14 14 16 19 20 13 12 10 9 9 9 8 7 8 16 18 20 19 19 20 21 21 nan 22 21 nan nan
29 30 29 27 27 26 27 31 32 33 35 37 38 40 40 39 37 36 36 37 36 35 35 35 35 33 33 33 30 28 28 28 27 28 28 28 28 28 27 27 28 27 25 25 23 22 23 22 20 19 17 14 12 12 12 11 13 14 13 13 15 19 21 14 12 11 9 9 9 8 7 8 17 18 18 19 20 19 21 22 22 22 nan nan nan
29 28 29 28 27 27 27 28 30 36 36 38 40 41 40 38 36 36 37 36 36 35 35 34 33 33 33 32 30 29 29 27 27 27 28 28 28 28 27 27 27 27 25 24 24 24 23 21 21 20 19 17 14 10 11 11 12 13 13 14 16 18 21 16 13 12 10 9 10 10 8 8 14 17 18 18 18 19 20 22 nan nan nan nan nan
28 28 28 28 28 28 28 29 30 32 33 38 41 42 39 35 35 35 37 36 35 34 33 32 32 33 31 30 30 30 28 26 26 27 27 27 27 27 26 26 27 27 25 23 23 22 21 20 20 20 20 17 16 12 10 11 12 13 13 15 17 18 21 18 13 12 10 10 10 10 9 11 15 16 18 17 17 18 19 20 20 22 nan nan nan
26 28 28 29 30 30 30 30 31 32 34 33 34 38 39 35 33 35 38 36 34 32 32 32 33 31 30 30 29 28 25 25 26 25 25 25 27 28 27 27 26 26 23 22 21 20 19 19 19 20 19 17 16 14 11 10 12 13 13 16 19 17 20 18 13 12 12 12 11 11 9 14 13 15 16 17 16 17 19 19 19 20 22 23 24
25 28 28 29 31 31 30 31 32 33 32 33 34 33 34 34 34 35 37 34 33 30 33 34 32 30 29 28 25 20 19 20 25 21 23 23 24 23 27 26 26 25 22 19 18 17 18 19 19 19 18 17 16 15 13 11 12 12 12 15 19 15 17 16 14 15 14 13 12 11 12 14 15 14 15 17 16 17 17 18 19 19 20 21 23
25 27 29 31 31 31 32 32 32 33 33 35 33 32 32 35 32 34 33 32 30 30 31 32 29 27 26 25 22 17 15 13 15 16 21 18 22 25 26 27 25 23 21 18 17 17 19 19 18 18 17 17 16 14 13 12 12 11 11 15 18 14 19 19 16 17 16 14 13 12 14 14 15 15 14 15 17 16 16 17 17 18 18 19 21
26 28 31 32 32 31 33 33 32 33 34 34 32 31 31 31 27 26 25 27 25 24 22 22 25 22 24 21 18 15 14 11 13 18 17 20 22 25 26 25 22 20 18 16 16 17 17 17 17 16 16 17 16 16 15 13 12 11 11 17 15 13 20 19 17 17 17 16 14 13 15 15 16 16 16 16 16 16 16 16 17 18 19 19 20
28 30 31 33 32 33 33 33 33 34 36 34 33 32 29 25 23 24 23 22 20 19 17 18 18 20 20 19 16 15 15 13 14 16 18 24 23 25 24 22 19 18 16 15 15 16 16 17 17 18 19 18 17 16 16 16 15 14 15 17 13 11 18 18 17 18 18 17 14 14 15 16 17 17 17 16 17 17 17 17 16 17 18 19 21
30 31 34 33 34 34 34 34 34 35 36 32 31 30 28 25 22 19 20 19 18 19 20 18 17 18 19 17 14 14 16 16 17 19 22 23 23 22 20 18 18 17 15 14 15 15 18 19 20 21 19 17 nan 18 19 19 18 16 16 18 11 10 16 18 18 19 19 17 15 15 15 15 15 16 17 17 17 16 17 17 16 16 17 19 20
31 35 36 35 35 35 34 33 32 33 34 31 28 25 26 26 23 20 18 17 18 19 19 17 16 15 14 13 11 12 15 18 18 18 19 19 17 16 15 14 15 14 16 14 14 15 18 18 17 nan nan nan nan 18 20 20 19 18 nan 16 13 9 14 17 18 18 18 18 16 17 16 15 14 16 17 18 18 17 18 17 17 17 17 19 20
36 38 37 38 36 34 32 30 30 29 29 26 26 26 27 26 23 19 18 17 18 16 16 15 14 12 11 10 10 13 15 17 19 20 18 14 12 12 13 14 14 14 14 14 14 16 17 17 18 18 nan nan 17 17 19 19 18 nan nan 15 14 17 16 16 17 18 18 18 17 19 17 16 14 15 19 19 18 19 19 19 18 18 18 18 20
38 39 38 36 34 32 29 28 28 27 26 24 25 26 nan 23 19 18 18 17 16 16 15 14 13 12 11 10 10 13 16 18 21 20 16 13 12 12 13 14 14 14 14 15 16 17 17 19 18 17 17 18 18 20 20 18 17 18 17 17 17 20 18 17 17 17 17 18 17 19 18 16 14 15 20 18 18 18 18 19 19 18 18 18 20
41 39 33 27 28 29 26 27 28 27 24 23 24 23 22 22 18 20 17 17 18 17 17 14 13 12 11 12 11 15 17 19 19 16 13 13 12 12 13 14 14 16 16 17 17 16 18 19 nan 17 16 17 19 20 20 18 18 18 19 nan 21 22 21 19 18 18 17 15 15 16 17 17 15 17 20 18 18 18 18 18 19 19 18 19 20
37 32 28 27 27 27 25 26 27 28 26 24 24 23 20 20 16 19 18 19 19 17 16 16 14 12 12 13 12 15 16 16 16 13 13 13 12 13 14 15 16 17 17 16 16 17 nan nan nan 16 16 16 17 18 17 18 18 19 nan 23 23 23 21 19 17 13 11 11 14 18 19 17 16 17 19 19 18 19 18 18 20 20 20 20 21
31 28 27 26 25 25 26 27 26 28 28 26 26 23 18 16 15 17 16 18 15 15 16 17 15 13 11 11 13 15 15 14 14 11 11 11 13 14 15 15 16 16 17 16 15 17 nan 16 15 16 16 nan 14 14 14 17 18 19 21 24 24 21 17 15 14 13 12 16 20 19 16 15 15 15 15 19 19 19 18 19 22 21 22 22 22
30 25 22 25 24 25 25 26 27 30 29 27 25 22 18 14 14 14 12 14 15 15 16 17 15 11 10 13 16 17 17 15 13 10 10 12 13 14 15 15 16 15 14 14 15 nan 13 13 12 13 nan nan 13 11 11 16 17 20 20 22 20 17 15 13 13 14 16 19 16 15 16 15 14 15 16 19 19 20 18 21 23 21 22 22 22
26 22 24 25 27 26 26 25 27 28 28 26 23 20 18 15 15 12 12 15 17 15 15 14 12 11 12 16 18 18 15 13 12 10 12 12 12 13 12 14 13 11 10 12 14 12 12 11 10 11 11 10 11 11 11 nan nan 19 19 20 17 16 14 13 13 14 16 16 13 11 16 19 16 15 15 18 21 19 19 20 22 23 22 21 22
23 26 27 28 28 27 26 26 25 25 27 25 21 18 18 17 15 13 14 15 14 12 12 11 12 14 16 18 18 15 10 9 9 10 10 11 11 11 10 10 9 8 8 10 11 10 10 10 8 9 9 8 8 10 12 14 nan 16 17 16 15 12 11 10 11 11 12 12 12 13 16 19 18 17 17 18 20 20 21 20 22 23 21 22 21
25 27 28 29 28 27 27 26 25 23 23 20 18 17 16 14 12 11 11 11 12 13 14 15 16 16 17 17 15 12 9 7 8 9 10 10 9 9 9 8 7 7 8 8 10 9 9 8 7 8 7 6 8 8 11 13 12 13 13 12 12 9 6 8 8 9 9 9 12 13 13 14 16 15 15 16 18 21 20 20 19 19 23 22 22
21 28 29 31 30 29 29 27 26 24 22 19 19 18 16 13 11 9 11 13 16 17 18 18 18 17 15 15 12 9 9 7 8 9 9 9 8 8 7 6 7 7 8 7 8 7 7 7 8 7 5 6 8 9 10 10 10 11 9 10 11 10 8 8 9 7 7 10 9 10 10 11 12 13 13 12 15 18 17 17 17 19 24 22 21
24 26 28 29 29 29 29 26 25 25 22 20 19 19 18 15 14 15 16 17 18 17 17 15 14 14 14 13 10 8 9 9 9 9 8 7 7 7 6 7 7 8 7 6 6 5 6 7 6 7 7 7 9 9 8 8 8 7 5 7 7 9 10 8 7 6 8 10 8 7 8 7 8 8 10 10 10 11 15 16 15 15 19 20 20
33 31 30 30 29 27 25 23 23 23 21 20 20 20 19 19 18 17 17 17 16 15 14 11 11 14 14 13 9 8 9 9 9 8 8 8 8 8 7 8 7 7 7 6 6 5 6 7 8 8 8 8 9 9 7 6 6 4 3 4 6 8 9 9 9 8 9 9 8 6 6 6 6 9 9 9 9 11 13 15 14 12 13 15 16
32 32 31 30 28 24 21 19 17 17 17 18 19 19 19 19 17 16 15 15 14 14 12 10 10 13 15 13 9 8 10 9 9 9 9 8 7 7 6 7 6 7 7 7 6 7 7 8 9 9 9 11 10 10 8 5 5 4 5 8 9 10 11 10 8 8 8 8 7 6 5 6 7 7 8 8 9 11 11 11 11 10 11 13 14
29 31 33 31 27 23 18 18 17 15 16 16 16 17 18 19 17 15 14 12 12 10 8 7 6 6 8 9 9 9 9 10 10 9 8 7 7 7 7 6 7 7 8 7 8 8 9 9 10 10 10 11 11 10 8 6 6 5 9 10 8 9 10 nan 8 8 6 5 5 6 6 6 6 7 8 8 8 9 10 10 11 11 13 17 16
29 31 32 32 31 27 21 18 17 17 17 16 15 16 17 19 19 16 13 9 8 6 2 3 5 5 5 8 9 11 11 11 10 8 7 6 6 6 7 6 7 8 8 8 8 7 8 10 10 11 11 10 11 11 10 8 nan nan nan 9 9 10 11 nan 8 nan 6 7 8 7 7 6 7 8 8 9 9 8 9 nan 10 10 11 14 16
32 33 32 32 33 30 24 20 16 16 16 17 16 17 18 18 17 15 13 9 8 7 6 5 9 10 10 9 11 12 11 10 8 7 7 6 7 7 7 7 7 8 7 6 6 6 7 9 9 10 11 11 11 11 9 nan nan nan 12 nan nan nan 12 nan nan nan 8 8 7 6 6 7 8 9 8 10 10 10 9 9 9 8 8 10 11
30 32 33 33 31 28 24 20 17 15 14 15 16 16 15 16 16 15 13 10 9 10 12 10 12 13 12 10 10 10 10 9 8 8 7 7 6 6 6 nan 6 6 6 6 6 7 8 9 10 11 10 11 10 11 9 nan nan nan 13 11 nan 10 nan nan nan 10 9 8 8 8 8 8 9 9 9 10 9 10 10 9 9 8 7 7 7
32 30 28 29 28 25 22 20 17 16 13 12 15 15 13 14 16 15 14 11 9 10 13 12 11 11 9 9 11 12 12 11 9 7 7 6 6 6 6 7 6 6 8 7 7 8 8 8 9 11 11 12 12 11 10 9 nan nan nan nan nan nan nan nan nan 12 10 10 10 10 10 10 10 11 10 10 10 11 9 10 11 9 9 9 7
27 25 23 24 24 22 20 18 17 16 14 12 13 14 15 15 16 17 14 13 10 11 13 10 9 9 9 12 13 13 13 11 8 7 6 6 6 6 6 6 5 6 8 8 7 7 7 8 10 10 12 13 12 11 10 9 nan nan nan nan nan nan nan nan nan 9 9 11 10 11 10 10 10 10 11 10 10 11 8 12 11 9 9 12 11
24 23 22 22 20 19 18 17 16 14 13 13 13 15 17 17 17 15 14 17 16 15 13 9 8 9 11 13 13 13 11 9 8 7 6 6 5 nan nan nan nan 6 7 7 7 6 7 7 9 10 10 13 11 11 10 8 nan 9 nan nan nan nan nan nan nan nan 9 10 9 10 11 10 10 8 9 9 10 12 12 13 13 12 10 11 12
24 21 20 20 17 15 15 14 13 13 13 13 14 16 15 16 14 13 14 14 16 15 12 9 8 10 11 13 14 12 10 10 9 8 7 nan nan nan nan nan nan nan nan nan nan 9 9 9 8 10 11 11 13 13 12 9 10 8 nan nan nan 11 nan nan nan nan 10 12 11 12 12 11 10 9 9 11 12 14 14 15 15 14 12 11 12
22 20 19 17 14 10 9 11 12 13 14 13 12 14 14 12 11 11 13 14 16 13 11 9 11 12 13 13 11 11 11 12 nan nan nan nan nan nan nan nan nan nan nan nan nan nan 10 10 10 12 12 14 14 14 13 10 10 9 8 8 9 12 nan nan nan 13 13 10 12 12 12 11 11 12 11 11 nan nan nan 15 16 16 15 13 12
22 19 17 16 15 12 10 11 11 13 13 13 11 12 13 12 11 11 12 13 13 12 11 11 13 13 14 13 nan nan nan nan nan nan nan nan nan nan nan nan nan nan nan nan nan nan nan 13 14 15 15 15 14 16 12 12 13 8 9 10 13 16 nan nan nan nan 15 15 13 12 nan 11 11 12 12 nan nan nan nan 14 16 15 14 14 13
21 18 16 16 15 15 14 12 12 12 13 13 12 11 13 12 12 13 13 nan nan nan nan nan nan nan nan nan nan nan nan nan nan nan nan nan nan nan nan nan nan nan nan nan nan nan nan nan 17 18 17 16 15 14 14 11 13 11 12 12 14 14 nan 14 nan nan nan nan 12 nan nan 12 13 14 nan nan nan nan 13 14 14 14 14 13 nan
19 18 16 14 13 13 13 12 10 10 11 12 10 10 11 12 13 13 14 12 11 11 nan nan nan nan nan nan nan nan nan nan nan nan nan nan nan nan nan nan nan nan nan nan nan nan nan nan nan 17 16 17 15 15 14 13 13 13 12 12 13 13 14 14 nan nan nan nan nan nan nan 13 15 13 15 15 14 nan nan nan nan nan nan nan nan
20 18 15 13 12 12 11 9 7 6 7 7 7 8 10 11 12 13 14 14 14 nan nan nan nan nan nan nan nan nan nan nan nan nan nan nan nan nan nan nan nan nan nan nan nan nan nan nan nan nan nan nan nan nan nan 16 16 16 nan 13 12 12 nan 12 13 nan nan nan nan nan nan nan nan 17 14 14 nan nan nan nan nan nan nan nan nan
Wind_Direction
297 297 297 302 300 297 294 290 291 291 292 291 292 294 296 296 298 299 298 298 300 302 305 306 307 307 307 307 307 307 307 306 304 300 294 292 293 295 299 298 296 295 295 295 296 296 294 294 293 291 289 287 284 281 280 280 283 282 282 283 282 283 285 280 274 263 260 258 254 245 241 243 246 nan nan 246 230 232 232 226 226 217 212 242 247
301 297 297 299 298 296 291 291 291 291 291 291 293 295 297 298 298 298 298 299 301 304 305 306 306 307 307 307 307 307 307 306 304 300 294 292 295 298 299 298 298 297 296 299 300 298 296 294 293 291 289 287 284 282 283 283 283 281 280 281 282 285 279 276 274 269 263 258 255 251 245 246 247 nan 249 238 236 235 229 229 231 221 225 245 244
295 299 297 299 297 294 292 292 292 292 292 293 296 297 298 299 298 297 299 301 303 305 305 305 306 307 307 307 307 307 306 305 303 300 296 293 296 298 298 299 298 297 297 300 300 298 298 296 297 296 292 287 287 285 282 282 281 280 282 283 287 287 287 286 275 265 260 256 253 252 246 249 251 250 251 246 237 236 229 226 226 230 230 245 249
296 296 296 298 298 295 294 292 293 293 294 295 298 299 300 299 298 298 300 303 304 304 304 305 307 307 307 307 307 307 306 305 304 302 298 295 295 295 296 294 293 295 297 299 299 299 296 296 294 292 291 289 287 285 283 280 278 278 279 282 287 292 288 287 280 269 263 261 256 247 230 nan nan nan nan nan nan 233 230 227 228 229 235 243 245
293 294 291 289 292 295 294 293 294 295 295 297 299 300 299 300 299 299 302 304 304 304 305 306 307 307 306 307 307 307 306 304 304 300 297 298 297 294 290 290 293 295 297 298 298 298 297 297 298 294 292 289 288 286 284 281 280 280 281 280 285 288 293 292 288 261 251 264 258 249 nan nan nan nan nan nan nan 240 236 227 229 230 233 237 239
291 291 287 286 288 291 294 294 295 296 296 298 299 300 300 299 299 300 302 303 303 304 306 307 307 306 306 306 306 306 305 303 303 300 297 293 288 288 289 290 293 296 296 296 296 296 298 299 296 293 290 288 287 286 284 280 277 277 278 280 282 283 283 277 293 237 247 250 252 nan nan nan nan nan 247 nan 239 221 nan 233 222 227 227 230 234
288 285 282 283 284 289 293 294 295 296 297 298 300 300 299 299 300 300 301 302 302 305 306 306 305 304 304 304 304 304 304 302 300 300 296 293 289 286 288 290 291 292 294 295 295 296 298 298 296 292 289 285 283 282 280 277 274 274 275 273 273 269 260 254 254 247 241 242 235 nan nan nan 220 234 251 nan 241 nan nan nan 232 229 227 230 233
279 280 280 280 281 288 291 292 294 294 295 298 300 299 298 298 299 299 299 300 301 302 303 302 302 301 301 301 303 303 301 299 297 299 297 293 292 289 287 287 288 292 292 292 294 295 297 297 293 289 285 283 281 277 276 273 271 269 268 267 263 259 256 252 255 239 261 251 246 246 242 232 nan nan 241 240 nan nan nan 232 227 228 230 234 234
276 278 278 278 280 289 288 290 291 292 295 298 297 297 297 297 298 298 298 299 300 300 299 299 298 299 299 300 300 300 299 297 296 291 285 281 282 280 278 276 275 275 284 292 293 295 296 295 290 288 285 280 277 275 272 270 267 265 262 259 255 250 241 229 239 288 274 266 257 247 242 235 nan nan nan nan 245 240 225 217 220 229 233 234 237
274 275 276 275 279 287 288 289 290 292 295 295 295 297 296 296 296 296 296 298 299 296 296 296 296 298 299 299 299 297 294 293 294 290 282 277 276 279 280 281 280 281 289 294 294 295 295 291 288 287 282 279 276 274 270 266 264 260 256 252 250 243 232 232 270 279 279 275 266 255 251 250 nan 235 252 nan nan nan 241 237 230 234 231 236 239
273 274 272 274 281 286 287 288 291 293 293 294 295 296 295 294 294 295 295 296 295 293 293 294 294 296 298 298 296 293 291 291 291 288 282 279 278 279 281 283 283 282 286 290 292 294 294 289 288 284 280 278 275 270 266 263 259 256 250 245 242 237 233 251 267 277 279 280 275 266 269 261 nan nan 253 246 nan nan 241 239 236 232 230 234 238
271 270 269 272 284 286 288 290 292 293 294 295 295 294 292 291 292 292 293 293 293 291 291 291 293 296 297 297 295 292 290 291 291 288 285 284 283 283 285 285 285 284 283 286 289 291 288 288 286 284 280 274 270 265 262 258 254 250 246 243 239 235 234 260 271 276 278 279 276 268 260 255 nan 252 257 255 252 nan nan nan nan nan nan nan 235
270 269 269 272 276 286 290 293 292 292 294 294 293 290 288 289 288 290 290 290 289 289 290 290 292 295 296 294 293 290 288 290 290 288 285 286 286 285 285 286 285 285 285 287 291 287 284 285 284 281 278 275 269 267 261 255 248 244 240 239 237 237 241 267 269 270 268 269 266 261 261 257 nan 259 257 255 253 253 249 245 243 241 240 nan nan
273 270 271 274 278 291 292 291 290 291 291 290 287 285 285 284 285 286 287 287 286 287 288 289 291 293 291 290 290 288 287 290 289 288 287 286 285 285 284 284 284 285 287 290 290 283 283 286 285 281 280 275 274 269 263 257 251 247 243 243 242 241 246 263 263 264 267 269 266 264 254 254 261 271 266 257 252 249 248 248 248 246 244 240 239
276 273 273 276 281 284 290 286 287 285 284 284 284 282 282 282 283 286 286 286 287 286 288 290 290 290 289 288 288 286 287 288 287 288 287 286 283 283 283 283 281 283 288 290 285 282 283 284 284 282 277 275 271 271 266 262 254 250 245 244 244 247 251 258 262 263 268 270 266 261 252 252 270 266 262 264 261 255 253 250 nan 243 243 nan nan
274 276 277 277 280 282 281 286 284 283 283 283 281 280 282 283 286 289 288 287 287 288 289 289 288 287 287 287 286 284 287 285 283 283 284 285 282 280 281 281 283 285 287 286 282 282 282 283 288 291 286 278 272 270 269 265 259 255 251 248 245 248 258 263 264 259 259 261 264 259 250 254 276 274 271 263 259 260 255 250 247 246 nan nan nan
274 274 276 278 278 276 277 276 278 283 280 278 279 282 284 287 291 291 288 287 288 287 290 289 287 284 285 288 285 282 283 284 283 282 282 281 281 280 280 281 284 285 282 279 279 279 281 285 291 294 294 291 284 275 271 268 264 259 256 250 242 241 258 270 266 258 259 259 262 261 252 250 278 278 271 267 267 263 260 256 nan nan nan nan nan
273 274 276 276 273 273 271 272 274 272 273 279 281 283 285 290 292 288 287 288 288 288 289 286 283 283 281 282 282 280 282 283 282 281 281 279 278 280 280 282 283 284 280 274 276 280 280 285 291 295 295 295 294 287 274 268 261 259 254 252 249 242 253 265 260 259 258 259 256 257 254 272 283 281 279 271 267 267 264 261 260 255 nan nan nan
269 274 274 275 272 270 269 268 267 268 271 274 278 284 290 290 286 287 290 288 288 288 288 286 285 283 283 281 278 278 281 283 281 281 282 282 283 282 283 284 285 284 279 272 273 276 280 287 294 293 293 294 291 287 278 263 261 257 252 252 252 249 253 261 260 259 248 247 252 252 255 280 275 279 283 281 276 269 266 268 264 262 255 251 248
266 273 272 269 269 268 266 265 265 268 271 274 277 279 285 285 288 289 291 288 290 285 287 287 287 286 274 271 266 267 279 284 288 285 287 283 280 277 283 286 285 279 271 269 275 281 288 292 293 294 293 293 292 285 283 276 268 262 257 257 257 250 251 262 259 253 248 245 242 249 266 279 279 276 280 281 278 274 272 268 265 264 264 260 255
260 265 268 268 268 268 266 264 267 270 271 272 272 274 280 286 285 289 284 283 286 285 284 286 281 276 268 261 254 249 252 267 282 286 289 280 280 280 282 284 278 271 267 271 277 282 287 291 293 293 290 287 284 283 283 278 271 266 263 259 260 246 253 255 249 249 245 240 235 243 270 271 276 279 279 281 283 281 274 271 271 272 271 267 264
262 263 264 266 268 266 266 267 269 269 269 270 271 275 278 282 280 276 279 284 282 280 277 275 273 266 264 252 249 248 245 257 277 288 289 285 281 281 280 277 271 266 269 273 278 282 287 289 285 281 277 272 268 273 270 261 255 255 251 261 259 250 261 262 256 251 248 242 233 244 267 267 272 272 273 279 280 280 277 273 270 267 266 267 268
263 263 264 268 267 266 267 270 270 270 269 270 274 276 273 273 273 278 281 282 278 276 275 273 264 266 261 254 250 243 241 252 279 292 290 288 278 277 273 269 268 270 272 275 277 280 282 276 269 262 257 258 266 263 261 258 250 239 242 253 255 255 263 262 253 247 247 245 240 259 263 266 270 271 270 271 273 275 278 278 274 270 268 268 267
267 265 266 265 267 267 269 271 272 274 275 276 278 281 281 273 271 274 278 275 273 273 271 265 264 266 261 255 250 246 247 251 273 288 287 276 271 266 266 265 268 270 272 266 274 278 268 259 258 260 261 264 nan 259 255 253 250 248 253 258 252 241 263 261 254 247 246 247 246 268 263 265 269 268 264 265 265 267 269 270 273 272 270 269 269
265 264 264 266 265 268 271 274 278 279 281 284 286 285 283 278 279 279 278 276 275 272 268 260 264 267 260 255 251 250 254 258 260 273 275 270 257 246 244 242 247 252 261 259 265 265 267 268 266 nan nan nan nan 256 255 252 254 255 nan 262 275 257 252 259 257 251 247 246 247 267 265 261 262 265 263 263 263 261 261 262 266 270 271 270 269
263 264 263 265 265 269 276 279 280 281 285 288 288 287 287 284 278 278 281 280 274 271 263 262 266 262 255 250 240 247 253 253 262 274 273 261 251 248 254 256 253 259 261 270 270 270 269 268 264 267 nan nan 264 257 254 253 249 nan nan 249 258 255 253 252 252 249 247 247 250 266 261 259 258 263 262 266 265 263 262 261 262 263 267 270 272
264 259 262 267 271 275 280 283 280 281 287 285 280 277 nan 274 282 282 285 284 277 273 265 266 261 247 249 257 254 253 256 257 266 270 264 255 259 260 260 259 261 264 264 269 270 270 270 266 265 266 265 263 260 257 252 249 246 246 247 245 249 248 247 253 249 247 246 247 251 266 263 262 261 259 267 266 265 263 261 261 262 262 264 269 272
261 261 266 276 283 286 285 282 276 275 276 275 277 277 282 291 293 291 283 285 284 276 265 265 259 251 265 278 266 262 261 258 259 257 251 253 261 257 257 257 260 265 267 272 271 267 265 266 nan 265 260 255 258 257 252 248 241 243 247 nan 250 249 240 232 235 237 238 245 258 276 277 276 268 268 274 271 269 265 263 261 262 261 263 264 267
269 279 277 277 277 279 283 281 276 278 279 280 281 286 299 292 291 281 279 284 273 266 264 265 264 266 279 281 271 266 259 252 249 248 250 256 258 258 261 260 263 268 269 267 269 268 nan nan nan 268 258 254 256 255 250 247 243 245 nan 247 248 252 255 259 262 269 273 274 266 259 264 263 261 264 274 271 269 268 266 264 262 263 263 262 263
269 273 272 270 273 284 287 290 285 286 285 281 282 295 303 291 290 284 282 283 272 266 272 271 271 279 281 270 264 263 262 257 248 246 255 256 258 257 257 258 260 261 264 267 265 267 nan 270 269 262 259 nan 252 244 241 243 245 247 246 245 245 254 266 278 284 279 267 246 238 243 250 266 265 262 262 272 273 270 264 263 265 264 263 264 263
282 280 280 284 285 287 289 291 290 292 291 290 294 304 294 297 295 288 285 282 278 281 280 274 274 274 271 264 266 269 266 256 245 245 258 263 257 255 255 256 258 258 264 267 263 nan 270 273 268 261 nan nan 245 240 238 245 246 247 245 247 248 253 271 281 278 272 258 246 250 248 241 266 274 267 262 270 271 271 268 268 275 271 266 267 266
278 280 279 280 282 287 291 294 293 294 294 296 300 302 298 295 296 291 276 276 281 278 271 269 281 274 267 269 270 269 264 247 241 257 273 262 250 252 255 258 267 263 264 267 269 271 272 272 264 255 250 249 248 245 239 nan nan 243 245 247 248 261 276 282 281 275 262 264 270 259 239 244 266 272 269 272 276 277 276 268 280 278 277 273 271
257 263 274 286 295 295 294 297 299 296 295 301 305 299 298 296 289 277 271 281 284 277 270 269 275 278 279 276 273 266 247 241 249 266 264 254 253 258 258 262 272 270 265 270 272 274 270 263 252 254 251 249 256 250 242 238 nan 238 244 246 252 267 278 271 267 269 270 280 277 256 238 236 244 263 268 274 283 280 280 274 277 287 285 281 276
266 268 280 288 296 298 291 288 295 296 297 300 300 299 306 304 289 270 273 284 289 287 284 279 278 281 281 274 267 256 241 249 267 259 255 257 259 260 262 264 267 269 266 269 278 279 274 262 249 243 247 249 253 243 240 236 233 237 241 245 245 249 247 252 263 268 279 280 268 255 241 235 240 247 252 268 284 283 284 283 279 278 287 285 281
281 279 289 297 300 301 292 284 290 293 297 297 298 300 306 310 301 281 277 283 288 290 289 285 281 274 263 256 255 252 247 262 262 262 256 255 255 254 257 267 266 266 270 263 276 272 277 259 250 249 234 234 240 232 237 241 245 246 249 252 248 239 238 237 233 254 259 249 258 240 224 227 229 233 246 253 282 296 292 289 287 279 287 285 282
307 297 296 298 299 302 297 287 291 297 299 296 292 296 300 300 294 290 283 284 287 288 286 285 275 259 245 236 227 238 249 256 247 243 248 243 244 245 251 256 262 263 262 256 252 257 256 255 248 272 263 250 248 238 235 245 251 260 256 257 245 227 236 236 242 247 240 251 257 238 225 232 236 245 257 261 265 286 303 299 296 288 289 288 284
305 310 308 304 298 303 302 295 301 305 301 294 290 291 293 293 292 288 291 291 286 282 280 274 258 251 245 232 224 235 242 239 238 231 232 232 235 246 255 261 263 269 266 255 242 249 268 262 245 250 269 267 255 257 247 247 258 263 244 242 217 210 220 228 225 223 233 243 251 241 242 242 246 261 263 267 265 267 294 304 302 303 299 298 288
302 303 309 307 297 299 305 302 301 305 305 304 298 293 289 286 284 288 293 293 282 274 276 277 269 264 257 245 234 234 234 243 245 236 229 230 240 253 259 270 273 275 269 258 246 253 258 264 255 242 252 262 265 267 263 252 259 247 202 214 213 215 214 216 217 230 231 241 233 233 249 250 255 254 270 268 260 260 261 273 289 293 293 288 270
302 303 307 305 301 299 300 302 301 296 298 301 293 283 280 276 273 282 287 282 270 262 270 257 244 252 249 244 246 246 246 252 247 241 242 244 253 265 274 281 282 280 272 256 250 248 250 249 262 254 251 262 273 274 277 272 260 241 223 223 229 224 217 nan 226 232 230 237 257 260 252 251 249 251 265 268 262 261 259 253 254 257 262 261 260
302 305 303 302 303 302 297 297 297 295 289 287 285 281 278 280 281 279 274 273 257 239 216 244 247 250 244 245 254 255 249 242 237 243 254 261 266 275 281 277 276 272 266 261 254 256 256 252 254 263 258 253 257 273 275 268 nan nan nan 243 240 224 229 nan 242 nan 235 227 235 245 265 260 253 254 258 262 268 271 262 nan 251 253 258 252 254
308 312 311 308 306 301 298 303 303 302 300 290 288 290 285 277 274 287 287 279 266 238 265 284 267 269 262 251 251 251 243 238 240 250 253 250 251 258 265 261 265 269 270 272 271 265 261 263 259 254 262 256 251 263 268 nan nan nan 241 nan nan nan 235 nan nan nan 248 233 234 250 246 255 249 255 253 251 263 265 264 259 256 260 259 252 245
309 312 317 318 313 302 302 306 305 308 311 300 290 284 284 288 287 288 276 279 268 262 277 287 272 267 264 262 268 264 254 252 251 253 256 262 265 266 271 nan 277 281 278 268 273 271 264 260 262 247 244 263 257 262 284 nan nan nan 265 250 nan 227 nan nan nan 240 250 251 254 254 251 256 256 256 261 258 259 261 265 264 260 258 254 256 256
309 313 313 314 316 310 302 306 304 302 301 290 283 283 276 277 278 275 276 259 243 251 270 275 269 273 274 274 267 258 256 253 255 260 269 272 279 279 278 282 285 281 269 267 266 266 267 271 268 271 256 246 257 251 252 246 nan nan nan nan nan nan nan nan nan 229 237 247 249 255 256 256 256 260 264 265 264 259 263 269 261 259 255 253 251
303 306 307 310 311 311 305 303 302 294 292 285 281 281 282 271 266 270 256 246 262 260 260 268 272 274 260 251 247 252 253 256 257 259 256 265 277 279 267 273 274 264 277 276 272 277 273 270 266 265 271 262 254 250 242 252 nan nan nan nan nan nan nan nan nan 233 237 245 248 259 263 262 252 253 260 265 261 267 265 269 262 266 260 251 244
304 303 304 301 301 307 307 304 298 292 283 277 271 272 271 265 262 252 245 247 245 254 257 253 259 255 251 247 248 249 253 256 256 262 268 269 261 nan nan nan nan 252 249 263 278 287 284 281 281 276 272 276 270 264 256 249 nan 252 nan nan nan nan nan nan nan nan 243 251 246 262 274 267 263 258 255 260 258 259 262 262 267 258 259 259 255
300 295 293 294 297 304 308 298 282 270 268 262 261 268 274 278 276 271 264 258 264 268 274 285 264 256 254 241 239 245 253 261 268 276 281 nan nan nan nan nan nan nan nan nan nan 252 253 267 280 280 272 269 277 267 261 251 259 259 nan nan nan 280 nan nan nan nan 251 256 255 253 255 259 263 262 261 263 254 253 254 262 263 268 266 258 261
292 289 288 285 285 292 305 299 280 259 253 255 257 260 263 271 276 270 263 268 275 262 254 257 262 245 249 250 253 256 269 281 nan nan nan nan nan nan nan nan nan nan nan nan nan nan 254 254 255 262 269 273 270 268 280 271 252 250 249 249 262 271 nan nan nan 278 274 255 248 253 254 256 264 268 263 253 nan nan nan 258 263 266 267 261 254
287 289 283 274 274 271 282 290 271 255 249 246 242 245 258 262 265 258 263 275 278 268 254 245 244 249 254 266 nan nan nan nan nan nan nan nan nan nan nan nan nan nan nan nan nan nan nan 243 244 249 255 260 269 277 277 278 281 269 251 253 254 268 nan nan nan nan 284 282 266 250 nan 256 253 246 245 nan nan nan nan 253 256 253 249 244 241
283 292 285 276 273 270 270 274 273 261 248 240 235 234 250 260 260 257 261 nan nan nan nan nan nan nan nan nan nan nan nan nan nan nan nan nan nan nan nan nan nan nan nan nan nan nan nan nan 246 243 246 245 248 255 263 273 266 269 258 247 250 255 nan 261 nan nan nan nan 267 nan nan 256 253 245 nan nan nan nan 248 250 250 247 244 241 nan
276 279 277 276 278 274 270 270 268 259 246 239 233 234 244 247 248 250 263 260 254 241 nan nan nan nan nan nan nan nan nan nan nan nan nan nan nan nan nan nan nan nan nan nan nan nan nan nan nan 251 248 245 239 246 252 255 255 258 257 264 256 252 249 250 nan nan nan nan nan nan nan 272 263 245 246 240 239 nan nan nan nan nan nan nan nan
275 278 277 280 281 275 267 263 253 238 236 235 238 246 239 239 245 252 262 266 261 nan nan nan nan nan nan nan nan nan nan nan nan nan nan nan nan nan nan nan nan nan nan nan nan nan nan nan nan nan nan nan nan nan nan 245 250 250 nan 255 265 271 nan 260 271 nan nan nan nan nan nan nan nan 259 240 245 nan nan nan nan nan nan nan nan nan